User: anonymous   Login
Location: Unspecified
(0.0000°N, 0.0000°E)
Time: 17:12:56
(UTC+00:00)
Language:

RISAT 1 - Orbit

View from above orbital plane
View from above orbital plane
View from above satellite
View from above satellite

Ground track
Ground track

The orbit data is extracted from the following two-line orbital elements,

1 38248U 12017A   15116.07475190  .00002989  00000-0  19324-3 0  9993
2 38248 097.5616 123.7453 0003282 186.6314 264.4783 15.08968184165141
Epoch (UTC): 26 April 2015 01:47:38
Eccentricity: 0.0003282
inclination: 97.5616°
perigee height: 537 km
apogee height: 541 km
right ascension of ascending node: 123.7453°
argument of perigee: 186.6314°
revolutions per day: 15.08968184
mean anomaly at epoch: 264.4783°
orbit number at epoch: 16514

The dashed part of the orbit path shows where the satellite is in the earth's shadow,  

DLR